Theta_e
322 321 324 325 325 325 326 325 330 329 334 336 343 347 339 336 338 340 341 341 342 343 343 345 347 347 345 347 346 349 351 350 350 353 350 345 343 342 342 339 339 340 340 340
326 328 325 328 329 329 333 329 331 330 341 338 338 335 332 331 334 339 341 340 340 339 341 344 348 346 344 343 344 346 348 349 349 349 349 344 342 342 335 334 334 336 341 341
325 325 324 327 329 335 345 343 335 334 335 336 336 332 330 331 333 336 338 339 338 338 337 339 344 350 345 343 342 343 344 345 346 345 342 341 337 337 336 337 338 338 340 338
324 323 328 325 335 341 343 342 340 343 343 337 335 335 332 330 332 334 336 336 335 335 336 341 342 348 347 343 341 340 341 343 342 339 339 336 336 336 337 336 338 340 339 338
324 322 328 341 340 339 341 340 340 336 336 339 340 334 331 333 331 333 333 333 333 329 333 335 339 342 345 343 337 336 338 340 340 340 338 338 335 335 337 338 338 338 338 329
317 324 332 330 333 334 333 340 337 335 335 332 331 334 333 328 329 331 331 331 327 326 327 327 328 328 339 342 340 335 336 337 338 338 339 339 336 335 337 339 341 339 331 325
321 325 331 333 332 332 342 337 336 334 334 334 331 328 327 327 326 327 324 324 327 326 325 326 326 326 328 334 342 341 339 335 335 336 337 337 337 338 338 340 338 333 328 326
325 337 339 328 329 336 330 332 333 336 334 333 330 328 330 330 326 323 324 326 328 327 327 328 327 325 325 327 332 340 339 337 336 336 336 337 337 338 336 334 334 329 326 322
332 332 325 325 327 326 323 325 327 327 328 332 331 330 328 327 323 324 324 325 326 327 328 327 326 324 324 325 327 330 337 337 336 335 336 337 336 334 332 331 330 327 325 322
327 328 325 324 324 324 324 325 324 323 324 328 330 328 327 323 323 324 324 324 324 325 326 324 324 323 323 323 326 326 332 336 336 334 332 332 331 330 330 329 328 328 327 323
325 325 324 324 323 323 324 325 330 329 329 329 328 327 324 323 323 322 322 325 325 325 324 324 322 322 324 324 325 330 336 333 329 325 326 322 322 323 325 326 328 327 326 324
325 322 322 322 322 324 327 329 329 331 332 329 326 325 323 324 320 323 325 326 325 325 323 322 322 321 323 329 329 329 326 324 321 321 316 314 313 316 321 325 327 328 329 328
323 319 320 322 324 325 328 331 332 332 329 328 326 324 324 320 320 326 329 326 323 323 323 321 321 322 323 323 325 324 323 320 317 316 315 316 315 316 320 322 324 324 320 315
319 321 324 323 325 324 328 330 329 329 329 327 326 325 325 319 322 326 327 327 324 322 322 320 319 318 320 322 322 322 322 321 320 319 320 318 316 316 316 318 319 317 315 315
320 320 321 320 322 325 329 329 330 328 325 324 324 323 322 321 321 324 325 326 321 321 323 321 319 318 319 318 317 319 319 319 319 321 319 318 316 315 315 315 315 315 314 314
319 319 321 323 324 324 326 328 326 323 323 322 322 322 323 324 324 323 325 325 323 322 323 324 321 320 319 320 320 319 319 320 321 321 318 317 317 316 316 316 316 316 316 315
320 322 323 324 322 322 323 324 323 323 323 322 322 323 324 327 324 325 326 326 325 325 324 321 320 320 320 318 317 317 319 319 316 316 317 317 317 316 316 316 316 315 315 316
318 319 320 321 321 322 322 323 324 323 322 322 323 325 323 326 327 324 327 325 326 323 322 321 320 319 316 316 318 320 319 318 318 318 319 318 318 318 318 317 317 317 316 316
320 321 319 319 319 320 321 322 322 322 321 321 324 323 322 327 327 326 327 326 324 322 322 321 321 321 316 316 317 318 318 318 318 317 316 315 315 316 317 316 315 315 315 316
320 320 321 320 321 322 322 323 322 321 320 322 324 324 324 325 325 325 325 323 323 323 322 321 321 319 318 315 315 318 318 318 318 317 316 315 315 316 316 315 315 316 316 315
320 319 320 321 320 321 322 322 321 320 320 321 323 322 321 321 322 322 321 321 321 323 322 322 320 320 320 317 315 317 317 316 316 316 316 316 315 315 316 316 316 316 316 317
320 320 320 321 321 320 321 320 321 320 319 319 322 322 321 321 321 321 321 322 321 319 320 321 320 318 318 320 315 316 317 316 316 316 316 316 316 316 316 315 316 316 316 316
320 320 319 319 318 319 319 320 319 318 318 321 321 321 321 321 321 321 321 321 321 320 321 320 317 317 320 318 316 314 315 316 316 316 315 316 316 316 316 316 316 316 317 316
317 316 317 317 317 317 315 317 317 318 321 322 322 321 320 321 322 322 320 319 318 317 315 317 318 318 319 318 317 316 314 314 314 315 315 316 316 316 316 317 317 317 317 317
315 315 314 314 314 314 315 316 318 319 321 318 321 321 320 318 319 319 321 321 321 319 315 314 316 317 317 317 317 316 316 316 316 315 316 316 317 317 317 317 317 317 317 316
315 313 314 314 315 316 317 318 318 319 321 320 319 320 321 321 320 320 321 319 318 318 317 316 316 316 317 317 318 317 317 317 316 316 316 316 317 317 317 317 317 317 317 317
315 316 314 313 316 319 319 318 318 319 321 321 320 320 319 319 318 319 320 319 318 317 317 318 318 318 318 318 318 318 318 318 318 317 317 318 317 317 316 317 317 317 317 317
Wind_Speed
5 5 2 3 5 7 7 6 6 4 7 5 2 2 3 4 6 5 5 5 5 5 6 8 9 12 13 10 9 6 10 17 19 17 23 27 26 19 17 9 7 16 12 11
3 2 3 4 5 5 3 3 4 8 3 2 2 2 4 6 6 7 8 6 5 4 4 6 11 12 10 10 8 5 4 14 21 25 30 33 28 24 22 22 16 8 12 12
5 3 6 3 5 4 3 1 2 6 6 6 3 4 4 7 7 7 8 6 4 5 6 14 14 14 13 9 7 5 7 13 21 28 35 30 23 25 22 20 17 19 17 15
4 2 5 6 5 6 10 3 3 5 4 5 5 3 2 1 4 8 8 9 9 10 15 19 19 17 15 11 8 8 12 19 23 26 19 16 19 17 17 33 23 17 17 12
4 5 1 2 3 6 5 3 2 5 4 2 2 3 4 4 2 4 6 6 9 13 15 17 18 20 17 12 12 14 17 23 25 23 16 16 19 24 24 27 26 22 17 16
3 5 9 9 5 1 5 1 6 5 4 3 3 2 4 4 3 7 9 12 17 22 20 18 21 19 15 15 15 19 22 22 21 18 14 16 23 25 21 23 30 26 21 17
4 4 5 3 2 3 5 6 7 6 5 4 3 5 4 5 7 6 12 17 20 18 17 20 21 21 17 17 18 23 22 23 20 18 18 18 22 23 24 24 27 27 24 18
3 2 6 2 1 6 4 3 6 5 4 5 7 6 5 7 6 8 10 17 21 19 21 26 27 26 24 23 25 15 22 27 24 23 22 19 22 20 21 24 27 26 26 20
5 4 4 3 2 3 3 6 4 5 6 8 5 4 6 6 5 6 12 16 23 19 21 28 27 25 26 32 27 22 20 28 31 28 25 32 28 27 27 27 25 20 20 21
3 3 1 4 2 2 3 5 5 5 5 5 6 5 6 5 5 5 10 11 16 18 19 23 29 34 37 40 35 30 28 28 26 28 25 27 27 28 26 23 22 17 18 17
2 2 2 1 2 4 3 2 3 2 3 3 2 2 2 4 5 6 11 16 14 15 18 22 29 41 33 28 24 26 27 25 23 20 21 23 23 17 18 20 24 22 16 26
5 8 5 4 4 4 5 3 2 1 3 3 1 4 2 2 2 6 7 8 11 13 15 21 32 36 36 16 17 29 29 30 28 28 19 24 25 21 13 10 14 17 23 22
5 6 5 6 5 2 4 3 0 2 1 2 3 2 0 1 2 4 3 6 9 12 15 20 29 39 39 40 38 35 34 34 32 29 27 27 27 25 20 15 18 19 16 14
7 10 4 3 4 6 4 4 3 1 4 5 6 4 2 4 2 3 5 2 4 7 16 18 20 37 38 40 39 35 38 32 29 22 17 15 15 20 22 21 18 15 13 13
8 2 6 6 5 5 3 3 2 4 4 6 5 5 6 2 4 4 1 2 7 11 15 11 12 15 35 31 28 25 31 28 23 14 14 16 17 16 16 16 16 14 12 11
5 6 7 8 8 6 5 5 5 5 4 5 6 8 8 4 6 9 6 10 9 8 6 4 7 12 18 19 17 18 22 23 20 18 17 16 14 14 14 13 13 12 10 8
7 4 2 3 7 6 7 6 6 3 4 5 9 11 5 7 10 11 12 14 10 6 2 4 6 6 7 9 13 17 19 21 20 18 14 12 10 8 9 10 9 8 7 5
3 5 8 5 7 7 6 6 5 5 4 9 13 9 8 11 10 14 15 12 7 6 6 7 8 9 11 14 16 15 16 14 12 12 10 8 6 4 5 7 8 7 4 4
2 3 3 6 7 5 4 4 7 5 9 12 11 6 8 13 15 16 16 13 12 10 9 8 6 7 11 11 11 11 14 13 12 12 9 7 7 7 7 7 5 4 2 1
3 0 1 4 5 7 6 8 6 5 9 11 10 3 4 11 9 13 16 16 15 11 12 10 9 9 8 9 8 8 5 6 5 6 5 5 5 5 5 3 3 2 3 3
1 3 5 5 5 6 7 5 5 6 9 10 6 3 2 4 11 14 13 8 9 13 14 11 8 7 7 6 6 6 5 5 3 1 1 1 2 2 1 1 2 4 5 6
4 3 4 5 5 7 5 5 5 5 8 9 3 3 8 8 10 6 7 12 12 10 11 10 7 6 4 5 5 5 4 2 0 1 0 1 3 4 6 7 7 8 9 9
3 4 4 4 3 5 5 4 4 5 6 3 4 12 16 13 9 4 4 13 13 8 7 7 5 4 8 7 2 1 3 3 2 3 4 5 6 7 8 9 11 11 13 14
4 6 5 5 4 4 3 2 4 4 1 7 14 14 13 12 12 4 6 10 9 7 6 5 3 7 8 7 5 5 5 6 7 9 10 12 13 14 15 16 14 13 14 16
6 5 6 5 4 3 4 2 2 2 13 13 13 12 12 11 5 3 3 4 7 7 4 4 1 2 4 5 7 8 10 11 12 12 13 14 13 11 11 12 16 17 15 15
3 2 1 3 4 7 3 4 6 11 13 10 5 11 1 5 5 10 9 5 6 5 3 2 4 6 7 8 10 13 16 18 18 17 16 16 16 14 14 9 14 11 10 10
2 1 3 5 6 6 8 13 15 12 11 9 8 7 5 3 3 6 6 6 3 2 5 6 8 9 10 9 9 14 13 13 14 16 16 18 17 17 16 13 11 10 10 8
Wind_Direction
250 239 255 225 225 184 189 190 170 223 171 213 174 26 348 318 344 2 31 30 19 356 336 333 305 276 289 297 295 290 220 211 210 180 167 150 138 135 126 71 353 325 272 234
278 319 168 255 255 170 150 163 105 133 120 173 120 73 15 2 358 352 341 346 351 340 309 301 301 293 274 277 291 302 222 192 186 175 166 154 147 160 150 141 128 243 237 220
259 338 339 305 213 188 129 15 167 166 191 151 166 101 33 356 354 328 321 319 334 316 308 312 307 298 279 282 281 269 222 192 180 172 164 161 172 180 181 161 165 174 204 221
210 18 248 267 266 130 117 49 41 83 104 158 183 178 164 346 304 323 333 334 348 348 342 337 332 306 285 279 270 245 213 193 181 173 172 174 172 180 191 151 162 176 206 212
174 190 139 317 204 177 156 219 285 125 119 111 84 56 306 235 242 269 287 320 332 343 335 338 346 340 289 257 243 229 214 199 192 192 204 202 185 182 173 152 149 179 185 177
135 176 201 214 172 53 128 250 203 166 136 103 106 54 267 255 297 300 347 7 346 341 341 345 344 341 323 266 239 229 224 213 215 213 195 179 176 173 178 165 157 165 170 170
176 229 285 232 264 148 166 232 155 160 181 207 184 203 235 340 309 20 1 340 345 349 343 345 342 336 305 289 243 241 240 227 214 207 202 189 176 173 171 157 158 163 158 158
114 108 247 83 63 174 189 90 138 174 201 219 238 279 292 300 330 356 334 343 345 339 333 330 321 315 302 272 257 227 222 215 204 195 184 184 175 168 160 156 156 157 149 145
177 199 265 286 118 100 126 129 155 172 225 219 243 259 280 302 348 337 342 328 328 315 315 317 314 301 294 277 257 235 213 201 197 194 192 184 174 165 158 162 151 147 144 149
80 234 64 69 36 139 188 166 172 212 235 193 213 248 289 322 359 338 328 313 329 330 329 323 322 315 290 276 246 224 215 201 184 179 168 163 161 156 158 160 152 150 152 156
297 18 71 40 131 159 128 126 195 163 160 204 225 304 295 5 354 335 342 360 350 345 341 325 329 328 315 276 230 215 177 156 128 117 122 137 125 138 163 172 177 166 164 165
206 203 154 188 187 171 160 178 205 138 337 37 92 278 31 10 12 18 356 2 9 359 355 359 10 5 21 357 142 114 96 90 91 105 115 112 110 106 117 145 170 167 160 161
198 151 167 152 163 168 163 192 224 198 249 301 315 309 138 170 39 6 20 32 17 18 16 13 46 28 39 45 76 83 92 85 101 103 100 99 109 124 125 133 144 141 145 150
139 112 79 172 192 205 198 174 165 236 271 258 264 292 259 175 118 80 22 19 26 47 47 35 44 71 59 66 64 73 82 84 84 95 106 118 142 154 153 153 155 158 156 154
169 36 156 145 146 187 165 149 223 248 267 283 305 315 309 184 217 180 211 188 129 112 92 79 59 66 91 91 94 99 106 113 122 151 175 182 183 172 169 175 176 178 177 185
134 113 135 159 180 189 188 214 234 253 267 302 331 309 310 272 207 198 195 180 173 164 145 124 128 132 123 128 136 138 139 148 160 182 190 170 163 167 173 182 184 181 180 187
116 130 161 210 197 199 208 217 223 242 281 296 294 301 275 179 176 186 189 194 201 187 174 155 155 195 198 173 162 171 182 182 172 164 160 165 175 179 188 198 194 186 190 198
184 179 194 190 193 204 222 225 241 267 272 305 313 304 190 173 186 187 181 174 176 154 149 144 141 128 123 117 111 125 145 142 142 143 144 138 136 141 143 149 145 144 154 184
157 176 193 218 224 215 220 232 248 284 320 321 317 284 214 201 194 182 171 182 175 153 145 145 140 125 103 96 98 113 119 123 126 129 125 117 112 102 118 112 102 89 69 130
155 74 310 241 221 208 223 249 288 322 332 330 325 279 225 204 197 175 170 171 172 157 156 161 151 135 110 81 74 101 128 104 119 142 135 99 91 102 112 93 72 35 25 20
205 309 279 259 252 253 257 288 309 333 330 325 306 302 143 143 154 147 145 151 162 162 163 164 156 149 144 120 96 103 116 118 110 85 203 83 57 70 103 267 288 290 287 285
14 354 332 320 299 297 309 300 284 301 309 316 307 122 117 111 131 148 175 164 145 142 162 181 190 176 219 168 103 156 162 170 40 345 63 268 303 278 268 268 283 284 293 291
11 352 338 336 297 288 302 286 267 299 322 329 146 149 139 117 92 116 165 146 152 170 165 166 164 178 176 183 180 29 218 228 262 300 303 289 276 273 277 279 279 287 299 299
63 35 18 351 335 350 353 318 311 306 180 150 139 137 143 115 66 216 148 141 145 152 140 127 102 180 196 211 251 287 271 273 285 291 298 307 298 284 278 276 282 292 293 289
74 63 39 34 23 340 306 298 295 157 159 142 134 123 107 99 152 146 60 140 165 171 149 149 148 207 220 229 247 267 278 285 293 297 301 305 303 304 306 309 303 292 297 296
87 64 7 5 337 346 47 87 105 135 153 159 176 169 208 171 204 221 252 169 159 171 183 241 270 283 288 288 286 286 287 290 296 301 309 306 300 296 302 299 290 292 301 308
152 158 46 49 67 98 96 103 106 115 151 165 153 199 263 295 164 164 165 159 173 241 279 297 302 310 310 301 304 319 308 298 301 306 307 307 307 301 295 289 286 284 290 305